Fort Campbell, KY

3:06 AM CDT on July 21, 2017 (GMT -0500)
Campbell Army Air Field

Weather History for KHOP - March, 2013

Change the Weather History Date:

Monday, March 18, 2013

  Actual Average Record
Temperature  
Mean Temperature 49 °F -  
Max Temperature 57 °F 57 °F 82 °F (2012)
Min Temperature 39 °F 36 °F 24 °F (2007)
Degree Days  
Heating Degree Days 16    
Moisture  
Dew Point 47 °F    
Average Humidity 98    
Maximum Humidity 100    
Minimum Humidity 82    
Precipitation  
Precipitation 0.93 in - - ()
Sea Level Pressure  
Sea Level Pressure 29.74 in    
Wind  
Wind Speed 10 mph (WNW)    
Max Wind Speed 17 mph    
Max Gust Speed 29 mph    
Visibility 7 miles    
Events Rain , Thunderstorm    
Averages and records for this station are not official NWS values.
T = Trace of Precipitation, MM = Missing Value Source: NWS Daily Summary

Daily Weather History Graph

Daily Weather History Graph

Search for Another Location

Airport or City:

Trip Planner

Search our weather history database for the weather conditions in past years. The results will help you decide how hot, cold, wet, or windy it might be!

Date:

Astronomy

Mar. 18, 2013 Rise Set
Actual Time 6:56 AM CDT 7:00 PM CDT
Civil Twilight 6:30 AM CDT 7:26 PM CDT
Nautical Twilight 6:00 AM CDT 7:56 PM CDT
Astronomical Twilight 5:29 AM CDT 8:26 PM CDT
Moon 11:04 AM CDT (3/18) 12:50 AM CDT (3/18)
Length of Visible Light 12h 55m
Length of Day
12h 04m
Waxing Crescent, 41% of the Moon is Illuminated
Mar 18
Waxing Crescent
Mar 19
First Quarter
Mar 27
Full
Apr 2
Last Quarter
Apr 10
New

Hourly Weather History & Observations

Time (CDT) Temp. Windchill Dew Point Humidity Pressure Visibility Wind Dir Wind Speed Gust Speed Precip Events Conditions
12:05 AM 44.6 °F 39.2 °F 44.6 °F 100% 29.75 in 10.0 mi ESE 10.4 mph - N/A   Overcast
12:17 AM 44.6 °F 39.7 °F 44.6 °F 100% 29.75 in 10.0 mi ESE 9.2 mph - N/A   Overcast
12:55 AM 46.2 °F 40.5 °F 46.2 °F 100% 29.71 in 10.0 mi SE 12.7 mph - 0.00 in   Overcast
1:55 AM 50.7 °F - 50.4 °F 99% 29.70 in 10.0 mi SSE 8.1 mph - N/A   Mostly Cloudy
2:55 AM 55.0 °F - 53.4 °F 94% 29.68 in 10.0 mi SSE 8.1 mph - N/A   Partly Cloudy
3:17 AM 57.2 °F - 55.4 °F 94% 29.67 in 10.0 mi South 8.1 mph - N/A Thunderstorm Thunderstorm
3:30 AM 53.6 °F - 53.6 °F 100% 29.68 in 10.0 mi West 5.8 mph 28.8 mph N/A Thunderstorm Thunderstorm
3:45 AM 53.6 °F - 51.8 °F 94% 29.68 in 10.0 mi NNW 9.2 mph 20.7 mph N/A Rain , Thunderstorm Thunderstorms and Rain
3:48 AM 53.6 °F - 53.6 °F 100% 29.68 in 7.0 mi North 9.2 mph 20.7 mph N/A Rain , Thunderstorm Thunderstorms and Rain
3:55 AM 52.0 °F - 52.0 °F 100% 29.70 in 6.0 mi WNW 17.3 mph 20.7 mph 0.04 in Rain , Thunderstorm Light Thunderstorms and Rain
4:03 AM 50.0 °F - 50.0 °F 100% 29.68 in 3.0 mi North 11.5 mph 20.7 mph N/A Rain , Thunderstorm Rain
4:04 AM 50.0 °F - 50.0 °F 100% 29.68 in 3.0 mi North 12.7 mph 20.7 mph N/A Rain , Thunderstorm Rain
4:25 AM 46.4 °F 41.9 °F 46.4 °F 100% 29.68 in 4.0 mi NNE 9.2 mph - N/A Rain Light Rain
4:30 AM 46.4 °F 39.8 °F 46.4 °F 100% 29.72 in 4.0 mi NNW 16.1 mph - N/A Rain Rain
4:32 AM 46.4 °F 39.5 °F 46.4 °F 100% 29.71 in 4.0 mi NNW 17.3 mph 26.5 mph N/A Rain Light Rain
4:34 AM 46.4 °F 39.8 °F 46.4 °F 100% 29.72 in 5.0 mi NNW 16.1 mph 26.5 mph N/A Rain Light Rain
4:35 AM 46.4 °F 39.8 °F 46.4 °F 100% 29.73 in 5.0 mi NNW 16.1 mph 26.5 mph N/A Rain Light Rain
4:44 AM 42.8 °F 35.1 °F 42.8 °F 100% 29.73 in 10.0 mi NNW 16.1 mph 28.8 mph N/A   Light Drizzle
4:51 AM 41.0 °F 32.5 °F 41.0 °F 100% 29.72 in 10.0 mi North 17.3 mph 28.8 mph N/A   Light Drizzle
4:55 AM 41.5 °F 33.5 °F 41.5 °F 100% 29.72 in 10.0 mi North 16.1 mph - 0.17 in   Light Drizzle
4:58 AM 41.0 °F 33.5 °F 41.0 °F 100% 29.73 in 10.0 mi North 13.8 mph 19.6 mph N/A Rain , Thunderstorm Light Thunderstorms and Rain
5:01 AM 41.0 °F 33.9 °F 41.0 °F 100% 29.75 in 10.0 mi North 12.7 mph 19.6 mph N/A Rain , Thunderstorm Light Thunderstorms and Rain
5:13 AM 41.0 °F 33.9 °F 41.0 °F 100% 29.73 in 10.0 mi NNE 12.7 mph - N/A Rain , Thunderstorm Light Rain
5:19 AM 41.0 °F 34.7 °F 41.0 °F 100% 29.72 in 10.0 mi NE 10.4 mph - N/A   Light Drizzle
5:38 AM 41.0 °F 35.2 °F 41.0 °F 100% 29.70 in 10.0 mi ENE 9.2 mph - N/A   Light Drizzle
5:50 AM 41.0 °F 36.4 °F 41.0 °F 100% 29.70 in 9.0 mi NNE 6.9 mph - N/A   Overcast
5:55 AM 41.5 °F 35.9 °F 41.5 °F 100% 29.70 in 9.0 mi North 9.2 mph - 0.03 in Rain Light Rain
5:57 AM 41.0 °F 34.7 °F 41.0 °F 100% 29.71 in 10.0 mi North 10.4 mph - N/A Rain Light Rain
5:59 AM 41.0 °F 34.7 °F 41.0 °F 100% 29.71 in 10.0 mi North 10.4 mph - N/A Rain Light Rain
6:06 AM 41.0 °F 36.4 °F 41.0 °F 100% 29.71 in 10.0 mi ENE 6.9 mph - N/A Rain , Thunderstorm Light Thunderstorms and Rain
6:13 AM 41.0 °F 36.4 °F 41.0 °F 100% 29.72 in 10.0 mi ENE 6.9 mph - N/A Rain , Thunderstorm Light Thunderstorms and Rain
6:15 AM 41.0 °F 37.1 °F 41.0 °F 100% 29.72 in 9.0 mi NE 5.8 mph - N/A Rain , Thunderstorm Heavy Thunderstorms and Rain
6:25 AM 42.8 °F 38.0 °F 42.8 °F 100% 29.71 in 6.0 mi ENE 8.1 mph - N/A Rain , Thunderstorm Thunderstorms and Rain
6:28 AM 42.8 °F 39.3 °F 42.8 °F 100% 29.72 in 7.0 mi Variable 5.8 mph - N/A Rain , Thunderstorm Light Thunderstorms and Rain
6:37 AM 42.8 °F 36.6 °F 42.8 °F 100% 29.78 in 10.0 mi NW 11.5 mph - N/A Thunderstorm Thunderstorm
6:40 AM 42.8 °F 41.1 °F 42.8 °F 100% 29.76 in 9.0 mi Variable 3.5 mph - N/A Thunderstorm Overcast
6:41 AM 42.8 °F - 42.8 °F 100% 29.76 in 9.0 mi Calm Calm - N/A Rain , Thunderstorm Light Thunderstorms and Rain
6:55 AM 42.6 °F 36.3 °F 42.6 °F 100% 29.72 in 3.0 mi ESE 11.5 mph - 0.08 in Rain , Thunderstorm Thunderstorms and Rain
7:01 AM 42.8 °F 36.6 °F 42.8 °F 100% 29.69 in 3.0 mi East 11.5 mph - N/A Rain , Thunderstorm Thunderstorms and Rain
7:05 AM 42.8 °F 35.8 °F 42.8 °F 100% 29.71 in 2.5 mi SE 13.8 mph - N/A Rain , Thunderstorm Thunderstorms and Rain
7:21 AM 44.6 °F 39.7 °F 44.6 °F 100% 29.70 in 1.2 mi East 9.2 mph - N/A Rain , Thunderstorm Heavy Thunderstorms and Rain
7:23 AM 44.6 °F 39.7 °F 44.6 °F 100% 29.70 in 1.0 mi ESE 9.2 mph - N/A Rain , Thunderstorm Heavy Thunderstorms and Rain
7:32 AM 44.6 °F 43.1 °F 44.6 °F 100% 29.70 in 1.5 mi NE 3.5 mph - N/A Rain , Thunderstorm Thunderstorms and Rain
7:35 AM 46.4 °F 44.3 °F 46.4 °F 100% 29.69 in 2.0 mi NE 4.6 mph - N/A Rain , Thunderstorm Thunderstorms and Rain
7:37 AM 46.4 °F 44.3 °F 46.4 °F 100% 29.69 in 2.5 mi NE 4.6 mph - N/A Rain , Thunderstorm Light Rain
7:39 AM 46.4 °F 45.2 °F 46.4 °F 100% 29.70 in 3.0 mi North 3.5 mph - N/A Rain Light Rain
7:41 AM 46.4 °F - 46.4 °F 100% 29.71 in 4.0 mi Calm Calm - N/A Rain Light Rain
7:49 AM 46.4 °F 45.2 °F 46.4 °F 100% 29.70 in 3.0 mi NW 3.5 mph - N/A Rain , Thunderstorm Light Thunderstorms and Rain
7:50 AM 46.4 °F 45.2 °F 46.4 °F 100% 29.71 in 2.0 mi WNW 3.5 mph - N/A Rain , Thunderstorm Light Thunderstorms and Rain
7:51 AM 46.4 °F 45.2 °F 46.4 °F 100% 29.71 in 1.8 mi West 3.5 mph - N/A Rain , Thunderstorm Light Thunderstorms and Rain
7:53 AM 46.4 °F 42.9 °F 46.4 °F 100% 29.72 in 1.2 mi WSW 6.9 mph - N/A Rain , Thunderstorm Heavy Thunderstorms and Rain
7:55 AM 46.4 °F 42.4 °F 46.4 °F 100% 29.73 in 1.0 mi SSW 8.1 mph - 0.38 in Rain , Thunderstorm Heavy Thunderstorms and Rain
8:02 AM 46.4 °F 42.9 °F 46.4 °F 100% 29.73 in 1.0 mi South 6.9 mph - N/A Rain , Thunderstorm Thunderstorms and Rain
8:05 AM 46.4 °F 44.3 °F 46.4 °F 100% 29.72 in 1.2 mi South 4.6 mph - N/A Rain , Thunderstorm Light Thunderstorms and Rain
8:07 AM 48.2 °F - 48.2 °F 100% 29.71 in 1.8 mi SSE 3.5 mph - N/A Rain , Thunderstorm Light Thunderstorms and Rain
8:08 AM 48.2 °F - 48.2 °F 100% 29.71 in 1.8 mi Calm Calm - N/A Rain , Thunderstorm Light Thunderstorms and Rain
8:16 AM 48.2 °F - 48.2 °F 100% 29.72 in 2.0 mi SSE 10.4 mph - N/A Rain , Thunderstorm Thunderstorms and Rain
8:29 AM 46.4 °F 41.5 °F 46.4 °F 100% 29.73 in 2.5 mi SSE 10.4 mph - N/A Rain , Thunderstorm Thunderstorms and Rain
8:34 AM 46.4 °F 41.1 °F 46.4 °F 100% 29.73 in 2.5 mi SSE 11.5 mph - N/A Rain Rain
8:36 AM 48.2 °F - 48.2 °F 100% 29.73 in 2.5 mi SSE 11.5 mph - N/A Rain Light Rain
8:38 AM 48.2 °F - 48.2 °F 100% 29.73 in 3.0 mi SSE 10.4 mph - N/A Rain , Thunderstorm Light Rain
8:41 AM 48.2 °F - 48.2 °F 100% 29.72 in 3.0 mi SSE 10.4 mph - N/A Rain , Thunderstorm Thunderstorms and Rain
8:53 AM 48.2 °F - 48.2 °F 100% 29.74 in 4.0 mi South 9.2 mph - N/A Rain , Thunderstorm Light Thunderstorms and Rain
8:55 AM 48.7 °F - 48.7 °F 100% 29.74 in 4.0 mi South 8.1 mph - 0.19 in Rain , Thunderstorm Light Thunderstorms and Rain
9:02 AM 50.0 °F - 50.0 °F 100% 29.73 in 5.0 mi South 8.1 mph - N/A Rain Rain
9:16 AM 50.0 °F - 50.0 °F 100% 29.73 in 9.0 mi South 8.1 mph - N/A Rain Light Rain
9:18 AM 50.0 °F - 50.0 °F 100% 29.73 in 10.0 mi SSW 6.9 mph - N/A Rain Light Rain
9:21 AM 50.0 °F - 50.0 °F 100% 29.74 in 10.0 mi SSW 8.1 mph - N/A Rain , Thunderstorm Light Rain
9:25 AM 50.0 °F - 50.0 °F 100% 29.74 in 10.0 mi SSW 9.2 mph - N/A Thunderstorm Overcast
9:42 AM 51.8 °F - 51.8 °F 100% 29.76 in 10.0 mi SW 13.8 mph - N/A   Overcast
9:55 AM 52.2 °F - 52.2 °F 100% 29.75 in 10.0 mi SW 10.4 mph - 0.04 in   Overcast
10:04 AM 51.8 °F - 51.8 °F 100% 29.75 in 10.0 mi WSW 11.5 mph - N/A   Overcast
10:27 AM 53.6 °F - 53.6 °F 100% 29.75 in 10.0 mi West 11.5 mph - N/A   Overcast
10:54 AM 51.8 °F - 51.8 °F 100% 29.75 in 10.0 mi West 16.1 mph 21.9 mph N/A   Overcast
10:55 AM 52.3 °F - 52.3 °F 100% 29.75 in 10.0 mi West 15.0 mph 21.9 mph N/A   Overcast
11:55 AM 53.1 °F - 53.1 °F 100% 29.77 in 10.0 mi West 13.8 mph - N/A   Overcast
11:58 AM 53.6 °F - 53.6 °F 100% 29.77 in 10.0 mi West 13.8 mph - N/A   Overcast
12:01 PM 53.6 °F - 53.6 °F 100% 29.76 in 10.0 mi West 9.2 mph - N/A   Overcast
12:04 PM 53.6 °F - 53.6 °F 100% 29.76 in 10.0 mi West 9.2 mph - N/A   Overcast
12:49 PM 55.4 °F - 53.6 °F 94% 29.76 in 10.0 mi West 12.7 mph - N/A   Overcast
12:55 PM 55.8 °F - 54.3 °F 95% 29.76 in 10.0 mi WSW 16.1 mph - N/A   Overcast
1:55 PM 56.3 °F - 51.4 °F 84% 29.74 in 10.0 mi West 12.7 mph - N/A   Overcast
2:55 PM 55.4 °F - 50.7 °F 84% 29.73 in 10.0 mi West 10.4 mph - N/A   Overcast
3:55 PM 54.1 °F - 50.5 °F 88% 29.76 in 10.0 mi WNW 12.7 mph - N/A   Overcast
4:55 PM 50.7 °F - 47.8 °F 90% 29.82 in 10.0 mi NW 10.4 mph - N/A   Overcast
5:55 PM 50.0 °F - 46.8 °F 89% 29.85 in 10.0 mi NW 9.2 mph - N/A   Overcast
6:55 PM 49.1 °F - 45.1 °F 86% 29.88 in 10.0 mi NW 9.2 mph - N/A   Overcast
6:57 PM 50.0 °F - 44.6 °F 82% 29.93 in 10.0 mi NW 9.2 mph - N/A   Overcast
7:31 PM 48.2 °F - 44.6 °F 87% 29.89 in 10.0 mi NW 8.1 mph - N/A   Mostly Cloudy
7:55 PM 46.8 °F - 44.8 °F 93% 29.90 in 10.0 mi NW 8.1 mph - N/A   Clear
8:55 PM 44.4 °F 40.5 °F 41.9 °F 91% 29.93 in 10.0 mi NW 6.9 mph - N/A   Clear
9:55 PM 43.2 °F 40.5 °F 40.5 °F 90% 29.96 in 10.0 mi NW 4.6 mph - N/A   Clear
10:55 PM 41.9 °F 40.0 °F 39.9 °F 93% 29.98 in 10.0 mi WNW 3.5 mph - N/A   Clear
11:55 PM 39.0 °F 36.8 °F 38.8 °F 99% 30.00 in 10.0 mi SW 3.5 mph - N/A   Clear